Weather Roundup
Issued by NWS Chicago, IL

Home | Current Version | Previous Version | Graphics & Text | Print | Product List | Glossary On
Versions: 1 2 3 4 5 6 7 8 9 10 11 12 13 14 15 16 17 18 19 20 21 22 23 24 25 26 27 28 29 30 31 32 33 34 35 36 37 38 39 40 41 42 43 44 45 46 47 48 49 50
000
NZUS59 KLOT 222004
HRRLOT

CHICAGO AREA WEATHER ROUNDUP
NATIONAL WEATHER SERVICE CHICAGO/ROMEOVILLE IL
200 PM CST MON JAN 22 2018

NOTE: "FAIR" INDICATES FEW OR NO CLOUDS BELOW 12,000 FEET WITH NO
SIGNIFICANT WEATHER AND/OR OBSTRUCTIONS TO VISIBILITY.

* THESE STATIONS ARE NOT UNDER NWS QUALITY CONTROL. THEY ALSO MAY NOT
  REPORT WEATHER SUCH AS PRECIPITATION OR FOG.

ILZ005-006-012>014-019>023-222100-
NORTHEAST ILLINOIS

CITY           SKY/WX    TMP DP  RH WIND       PRES   REMARKS
OHARE          CLOUDY    52  49  89 S18       29.44F
MIDWAY         PTSUNNY   54  50  86 S18G30    29.46F
AURORA         CLOUDY    53  51  93 S10       29.43F
WAUKEGAN       CLOUDY    51  50  96 S14G22    29.43F FOG
DUPAGE AIRPORT CLOUDY    52  51  97 S17       29.43F
WHEELING       CLOUDY    52  51  97 S16G24    29.46F
NORTHERLY ISL    N/A     51  47  86 S17         N/A
$$

WIZ051-052-058>065-066-070>072-222100-
SOUTHEAST WISCONSIN

CITY           SKY/WX    TMP DP  RH WIND       PRES   REMARKS
MILWAUKEE      DRZL/FOG  40  40 100 CALM      29.44F VSB 1/2
KENOSHA*       CLOUDY    51  49  92 S12       29.43F FOG
RACINE*        CLOUDY    44  44 100 S6        29.46S FOG
WAUKESHA       FOG       37  36  93 NE5       29.45F VSB 3/4
$$

INZ001>003-010>013-019-020-222100-
NORTHWEST INDIANA

CITY           SKY/WX    TMP DP  RH WIND       PRES   REMARKS
GARY*          CLOUDY    54  50  87 S17G31    29.50F
MICHIGAN CITY* NOT AVBL
RENSSELAER*    NOT AVBL
VALPARAISO     CLOUDY    53  49  86 S17G25    29.52F
$$

LMZ740>746-222100-
SOUTHERN LAKE MICHIGAN

STATION/POSITION TIME  SKY/WX   TEMP WIND        PRES    VSBY
                                AIR  DIR/SP/G
                 (UTC)          (F)  (DEG/KT/KT) (MB)    (MI)
HARRISON CRIB    1940            50  190/ 24/ 25   N/A
BURNHAM HARBOR   2000            51  180/ 18/ 20   N/A
CALUMET HARBOR   1930            51  170/ 15/ 25  997.9F
BURNS HARBOR     1940            51  200/ 20/ 29  999.7F
MICHIGAN CITY    1940            52  180/ 23/ 29   N/A
$$

ABBREVIATIONS USED IN REMARKS
   TC - TEMPERATURE IN CELSIUS
  WCI - WIND CHILL INDEX
   HX - HEAT INDEX
  VSB - VISIBILITY
$$




USA.gov is the U.S. government's official web portal to all federal, state and local government web resources and services.